Location: Blanot
(47.1713°N, 4.2340°E)
Time: 04:18:09
(UTC+00:00)

Resurs 1-4 Rocket - Pass Details

Date: 14 July 2020
Orbit: 800 x 814 km, 98.6° (Epoch: 06 August)

Event Time Altitude Azimuth Distance (km) Brightness Sun altitude
Rises 03:02:09 0° 2° (N) 3,349 6.1 -8.6°
Reaches altitude 10° 03:05:11 10° 344° (NNW) 2,411 5.0 -8.3°
Maximum altitude 03:08:40 18° 303° (WNW) 1,897 3.9 -7.9°
Drops below altitude 10° 03:12:09 10° 262° (W) 2,396 4.1 -7.4°
Enters shadow 03:13:26 - 252° (WSW) 2,755 4.3 -7.3°
